Flag for India Weather past 2 weeks in Maraimalai Nagar, Tamil Nadu, India

Now
77 °F

Thunderstorms. More clouds than sun.


Feels Like: 78 °F
Forecast: 77 / 90 °F
Wind: 3 mph from North

Location: Madras / Minambakkam

Current Time: Oct 23, 2014 at 4:43:39 PM

Latest Report: Oct 23, 2014 at 3:10 PM


Visibility: 1 mi

Pressure: 29.83 "Hg

Humidity: 100%

Dew point: 77 °F

Location of Maraimalai NagarLocation

Historic Weather in Maraimalai Nagar — Graph

°F

Maraimalai Nagar temperature yesterday

Maximum temperature yesterday: 90 °F (at 11:10 AM)
Minimum temperature yesterday: 77 °F (at 2:10 AM)
Average temperature yesterday: 82 °F

Past Weeks' High & Low Weather Summary

 TemperatureHumidityPressure
High97 °F (Oct 13, 2:10 PM)100% (Oct 10, 4:10 AM)29.95 "Hg (Oct 10, 4:10 AM)
Low75 °F (Oct 18, 4:40 AM)39% (Oct 13, 2:10 PM)29.56 "Hg (Oct 11, 2:10 PM)
Average83 °F83%29.78 "Hg
* Reported Oct 8 2:40 PM — Oct 23 3:10 PM, Maraimalai Nagar, Weather by CustomWeather, © 2014

Note: Actual official high and low records may vary slightly from our data, if they occured in-between our weather recording intervals... More about our weather records

Advertising

Maraimalai Nagar weather history for previous 24 hours

 ConditionsComfort  
Time TempWeatherWind HumidityBarometerVisibility
3:10 PM
Oct 23
77 °FThunderstorms. More clouds than sun.3 mph100%29.83 "Hg1 mi
2:10 PM81 °FFog.5 mph89%29.83 "Hg2 mi
1:40 PM81 °FFog.3 mph89%29.86 "Hg2 mi
1:10 PM79 °FFog.5 mph94%29.86 "Hg2 mi
12:40 PM79 °FFog.3 mph94%29.86 "Hg2 mi
12:10 PM81 °FFog.2 mph94%29.89 "Hg2 mi
11:40 AM79 °FScattered clouds.6 mph94%29.92 "Hg2 mi
10:40 AM77 °FThunderstorms. Scattered clouds.5 mph100%29.92 "Hg2 mi
9:10 AM84 °FFog.5 mph84%29.95 "Hg2 mi
8:10 AM81 °FFog.No wind94%29.92 "Hg1 mi
7:40 AM79 °FFog.No wind94%29.92 "Hg1 mi
7:10 AM79 °FFog.No wind94%29.89 "Hg1 mi
6:40 AM79 °FFog.No wind94%29.89 "Hg1 mi
6:10 AM77 °FFog.No wind100%29.86 "Hg1 mi
5:40 AM77 °FFog.No wind100%29.86 "Hg1 mi
5:10 AM77 °FFog.No wind100%29.83 "Hg1 mi
4:40 AM77 °FFog.No wind100%29.83 "Hg1 mi
4:10 AM79 °FFog.No wind94%29.83 "Hg1 mi
3:40 AM79 °FFog.No wind94%29.83 "Hg1 mi
3:10 AM79 °FFog.No wind94%29.83 "Hg1 mi
2:40 AM79 °FFog.3 mph94%29.83 "Hg1 mi
2:10 AM79 °FFog.3 mph94%29.86 "Hg1 mi
1:40 AM79 °FFog.3 mph94%29.86 "Hg1 mi
1:10 AM79 °FFog.No wind100%29.89 "Hg1 mi
12:40 AM79 °FFog.No wind100%29.89 "Hg1 mi
12:10 AM79 °FFog.No wind100%29.89 "Hg1 mi
11:40 PM
Oct 22
79 °FFog.No wind100%29.89 "Hg1 mi
11:10 PM79 °FFog.No wind100%29.92 "Hg1 mi
10:40 PM79 °FFog.No wind100%29.92 "Hg1 mi
10:10 PM79 °FFog.No wind94%29.92 "Hg1 mi
9:40 PM79 °FFog.2 mph94%29.92 "Hg1 mi
9:10 PM79 °FFog.2 mph94%29.92 "Hg1 mi
8:40 PM79 °FFog.3 mph94%29.92 "Hg1 mi
7:40 PM81 °FFog.3 mph89%29.89 "Hg1 mi
7:10 PM81 °FPassing clouds.3 mph89%29.89 "Hg2 mi
6:40 PM81 °FPassing clouds.5 mph94%29.86 "Hg2 mi
5:40 PM84 °FScattered clouds.7 mph79%29.86 "Hg4 mi
5:10 PM84 °FScattered clouds.12 mph74%29.83 "Hg4 mi
4:40 PM86 °FScattered clouds.13 mph70%29.83 "Hg4 mi
4:10 PM86 °FScattered clouds.15 mph75%29.83 "Hg4 mi
Weather by CustomWeather, © 2014

See weather overviewHow to use our weather pages